Weather Service Report


888 
ASUS42 KFFC 271103
RWRGA 
WEATHER ROUNDUP FOR GEORGIA
NATIONAL WEATHER SERVICE PEACHTREE CITY GA
700 AM EDT MON JUN 27 2016

NOTE: "FAIR" INDICATES FEW OR NO CLOUDS BELOW 12,000 FEET WITH NO
SIGNIFICANT WEATHER AND/OR OBSTRUCTIONS TO VISIBILITY. 

* = USE WITH CAUTION. THE STATIONS MARKED WITH AN ASTERISK MAY NOT
REPORT WEATHER SUCH AS PRECIPITATION, FOG, OR THUNDER AND ARE NOT 
QUALITY CONTROLLED BY NWS.

THE REMARK "TC" DENOTES TEMPERATURE READING IN DEGREES CELSIUS.

GAZ001>058-271200-
NORTH GEORGIA
  
CITY           SKY/WX    TMP DP  RH WIND       PRES   REMARKS
ATLANTA        PTCLDY    71  68  90 S6        30.11R                  
ATHENS         MOCLDY    73  70  90 CALM      30.11S                  
CHAMBLEE       CLEAR     73  68  84 CALM      30.11R                  
PEACHTREE CITY MOCLDY    69  68  96 CALM      30.12S                  
ROME           CLEAR     70  68  93 CALM      30.10S                  
WEST ATLANTA   PTCLDY    71  68  90 CALM      30.10S                  
GAINESVILLE    MOCLDY    75  67  76 CALM      30.15R                  
CARTERSVILLE   CLEAR     70  69  97 CALM      30.12R                  

  
CITY           SKY/WX    TMP DP  RH WIND       PRES   REMARKS
DALTON*        CLEAR     70  70 100 CALM      30.11R                  
LAWRENCEVILLE* CLEAR     72  66  83 CALM      30.13                   
MARIETTA       MOCLDY    72  69  90 CALM      30.10F                  
KENNESAW*      PTCLDY    72  66  83 CALM      30.09                   
CANTON*        CLEAR     72  64  78 CALM      30.13S                  
$$

GAZ059>098-102>109-271200-
CENTRAL GEORGIA
  
CITY           SKY/WX    TMP DP  RH WIND       PRES   REMARKS
AUGUSTA-BUSH   MOCLDY    73  72  96 CALM      30.10S FOG              
AUGUSTA-DANIEL PTCLDY    75  72  90 SE7       30.12S FOG              
COLUMBUS       CLOUDY    70  70 100 CALM      30.11S FOG              
MACON          CLEAR     68  66  93 CALM      30.10F                  
ROBINS AFB     CLEAR     70  69  96 CALM      30.10F                  

  
CITY           SKY/WX    TMP DP  RH WIND       PRES   REMARKS
LAGRANGE*      CLEAR     69  69 100 CALM      30.12S                  
SYLVANIA*      CLEAR     76  74  94 CALM      30.11S FOG              
MILLEDGEVILLE* MOCLDY    72  72 100 CALM      30.11S                  
$$

GAZ099>101-110>166-271200-
SOUTH GEORGIA
  
CITY           SKY/WX    TMP DP  RH WIND       PRES   REMARKS
SAVANNAH       PTCLDY    74  71  91 N3        30.10S                  
VALDOSTA       CLEAR     70  69  97 CALM      30.10S                  
ALMA           FOG       73  73 100 W3        30.11R VSB<1/4          
ST SIMONS      CLEAR     76  76 100 NW3       30.08S                  
FT STEWART     PTCLDY    74  73  95 CALM      30.07S                  
ALBANY         FOG       70  69  97 CALM      30.13S VSB 1/4          
HUNTER AFB     CLEAR     74  74 100 NW6       30.07S                  
MOODY AFB      CLEAR     70  69  96 NE6       30.09F                  
BRUNSWICK      FOG       75  75 100 CALM      30.09F VSB 1/2          

  
CITY           SKY/WX    TMP DP  RH WIND       PRES   REMARKS
BAINBRIDGE*    FOG       72  70  94 CALM      30.11S VSB 3/4          
MOULTRIE*      CLEAR     70  70 100 CALM      30.12S FOG              
VIDALIA*       MOCLDY    73  72  94 CALM      30.11S FOG              
WAYCROSS*      FOG       76  76 100 CALM      30.10S VSB<1/4          
DOUGLAS*       MOCLDY    73  72  94 CALM      30.13S                  
$$
  

Return to Home page


Western Regional Climate Center, wrcc@dri.edu